Retour au catalogue

FENGYUN 1C DEB

ActifPO
NORAD 30804·DEBRIS·🇨🇳 China

Lancé May 10, 1999 depuis Taiyuan Satellite Launch Center

Loading…

Prochains Passages (prochaines 24 heures)

TLE

FraisSource: Space-Track

Époque: Sep 14, 2026, 04:51 UTC

1 30804U 99025AUN 26257.20259722  .00001082  00000-0  20867-3 0  9998
2 30804  98.8719 344.9542 0183903  74.4730 317.2089 14.55596493 34782

Suivez FENGYUN 1C DEB en temps réel avec AllMySat

Download on the App Store